Starlink 6114

operational
NORAD ID: 56116 Int'l Des: 2023-046 Owner: SPXS Country: US Constellation: starlink
LEOCIRCULAR

Starlink 6114について

説明を読み込み中...

リアルタイム位置

3D地球を読み込み中...

次回通過

高度履歴

Altitude vs Time

uPlot chart will show altitude changes over time

軌道要素

1 56116U 23046Z 25308.16552161 .00000700 00000-0 66912-4 0 9994
2 56116 43.0035 120.6885 0001217 266.0702 94.0002 15.02539306143186
Epoch: Nov 4, 2025 • Age: 17 hours

現在のステータス

高度 571.0 km
速度 7.58 km/s
衛星直下点 -41.65°S, 43.16°E
打ち上げ日 Mar 29, 2023
運用期間 2.6 years
タイプ internet

技術仕様

分類 Payload
質量 305.00 kg
乾燥質量 290.00 kg
総質量 305.00 kg
長さ 0.20 m
直径 2.80 m
スパン 9.00 m
形状 Box + pan
製造者 SPXS
バスタイプ Starlink
フェーズステータス In Orbit
所有者/国 SPXS/US

大規模コンステレーション

Loading constellations...